Hourly Weather Roundup
Issued by NWS Central Illinois

Home | Current Version | Previous Version | Text Only | Print | Product List | Glossary On
Versions: 1 2 3 4 5 6 7 8 9 10 11 12 13 14 15 16 17 18 19 20 21 22 23 24 25 26 27 28 29 30 31 32 33 34 35 36 37 38 39 40 41 42 43 44 45 46 47 48 49 50
000
NZUS43 KILX 250510
HWRILX

AREA WEATHER ROUNDUP
NATIONAL WEATHER SERVICE, LINCOLN IL
1200 AM CDT WED MAY 25 2016


CITY           SKY/WX    TMP DP  RH WIND       PRES   REMARKS
BLOOMINGTON    CLOUDY    71  64  78 S13       30.01S
CHAMPAIGN      CLOUDY    70  58  65 S9        30.01F
DANVILLE       CLOUDY    69  57  65 S3        30.00S
DECATUR        PTCLDY    70  62  76 S9        30.01S
EFFINGHAM      PTCLDY    68  63  84 CALM      30.03F
FLORA          PTCLDY    67  64  88 S5        30.02F
GALESBURG      CLOUDY    67  60  77 CALM      29.95S
JACKSONVILLE   CLOUDY    69  62  77 S8        29.99R
LACON          CLOUDY    72  61  69 CALM      29.96R
LAWRENCEVILLE  CLOUDY    70  60  70 S6        30.04S
LITCHFIELD     CLOUDY    65  61  86 S7        30.00F
$$


CITY           SKY/WX    TMP DP  RH WIND       PRES   REMARKS
LINCOLN        PTCLDY    72  65  80 S9        29.99S
MACOMB         CLOUDY    67  63  85 S6        29.98S
MATTOON        CLOUDY    69  57  65 S7        30.01S
MT CARMEL AP   PTCLDY    68  59  73 S6        30.04S
OLNEY-NOBLE AP CLOUDY    68  61  77 S5        30.03S
PARIS          PTCLDY    67  58  72 S3        30.03F
PEORIA         CLOUDY    73  62  68 S7        29.97S
PONTIAC        CLOUDY    74  64  69 S12       29.99F
RANTOUL        MOCLDY    71  60  67 S6        30.01F
ROBINSON       PTCLDY    65  59  79 S5        30.04F
SPRINGFIELD    MOCLDY    71  63  75 S10       29.99S
TAYLORVILLE    CLOUDY    67  61  83 S5        30.00F
$$

...REGIONAL REPORTS...


CITY           SKY/WX    TMP DP  RH WIND       PRES   REMARKS
CHICAGO O`HARE CLOUDY    72  58  61 S8        29.96S
KANKAKEE       CLOUDY   N/A N/A N/A S8        30.01R
MOLINE         CLEAR     72  62  71 S5        29.93S
MOUNT STERLING CLOUDY    64  61  89 S5        29.98R
MOUNT VERNON   MOCLDY    64  59  82 SW3       30.04S
PITTSFIELD     CLOUDY    67  63  87 S5        29.99R
QUINCY         CLOUDY    66  62  87 S8        29.97R
ROCKFORD       MOCLDY    71  60  68 SE5       29.96F
$$


CITY           SKY/WX    TMP DP  RH WIND       PRES   REMARKS
BURLINGTON     CLEAR     66  63  90 S5        29.94F
CEDAR RAPIDS   CLEAR     69  66  90 S8        29.93R
DES MOINES     CLOUDY    70  62  76 S8        29.90S
KIRKSVILLE     CLOUDY    65  63  93 S6        29.96S
OTTUMWA        CLEAR     67  63  87 SE3       29.93S
ST LOUIS       CLOUDY    69  62  78 S7        30.00F
$$


CITY           SKY/WX    TMP DP  RH WIND       PRES   REMARKS
TERRE HAUTE    PTCLDY    68  56  65 S5        30.04F
EVANSVILLE     CLEAR     69  59  70 CALM      30.05F
INDIANAPOLIS   MOCLDY    66  55  67 S3        30.05S
LAFAYETTE      CLOUDY    68  54  60 S3        30.02F
MADISON        CLEAR     66  59  78 CALM      29.94F
MILWAUKEE      MOCLDY    62  51  67 SE3       29.96S
$$






USA.gov is the U.S. government's official web portal to all federal, state and local government web resources and services.